Location: B
(0.0000°N, 0.0000°E)
Time: 06:51:52
(UTC+02:00)

Amateur Radio Satellites - All Passes

Search period start: 24 July 2017 06:21
Search period end: 25 July 2017 06:21
Location: B, 0.0000°N, 0.0000°E

Satellite Date Start Highest point End Downlink Frequencies (MHz)
Time Altitude Azimuth
Tancredo 1 24 Jul 06:41:39 06:43:57 20° 55° (NE) 06:46:16 437.200
STARS 24 Jul 06:47:53 06:52:06 44° 78° (ENE) 06:56:17 437.465
XW-2C 24 Jul 06:55:35 06:57:00 12° 102° (ESE) 06:58:26 145.795 - 145.815
AO-7 24 Jul 06:59:30 07:03:02 13° 288° (WNW) 07:06:35 .
SRMSAT 24 Jul 07:05:28 07:07:19 11° 8° (N) 07:09:11 437.500
NUDT-PHONESAT 24 Jul 07:09:00 07:10:39 13° 102° (ESE) 07:12:19 437.300
SO-50 24 Jul 07:09:01 07:13:11 33° 292° (WNW) 07:17:17 436.795
LilacSat-2 24 Jul 07:15:22 07:18:37 27° 102° (ESE) 07:21:55 437.200
KAITUO 1B 24 Jul 07:20:02 07:22:51 20° 102° (ESE) 07:25:42 145.475/437.950
XW-2F 24 Jul 07:32:24 07:36:00 44° 101° (E) 07:39:38 145.980 - 146.000
ISS 24 Jul 07:33:51 07:36:43 29° 55° (NE) 07:39:37 437.550
HO-68 24 Jul 07:44:13 07:48:01 15° 105° (ESE) 07:51:49 435.675
DOVE 4 24 Jul 07:45:49 07:50:17 33° 283° (WNW) 07:54:33 437.250
JUGNU 24 Jul 07:54:15 08:00:02 55° 21° (NNE) 08:05:46 437.505
XW-2D 24 Jul 07:59:59 08:03:40 52° 281° (W) 08:07:23 145.860 - 145.880
STRAND 1 24 Jul 08:07:42 08:10:40 16° 77° (ENE) 08:13:39 437.568
XW-2B 24 Jul 08:10:09 08:13:40 37° 281° (W) 08:17:13 145.730 - 145.750
CUTE-I 24 Jul 08:10:21 08:15:38 70° 283° (WNW) 08:20:56 437.470
YUBILEINY 24 Jul 08:14:23 08:23:05 83° 267° (W) 08:31:48 435.215
nSIGHT-1 24 Jul 08:17:02 08:20:09 46° 235° (SW) 08:23:18 .
CUTE 1.7 + AOD 2 24 Jul 08:17:27 08:20:43 22° 102° (ESE) 08:24:00 437.475
XW-2C 24 Jul 08:28:07 08:30:54 20° 281° (W) 08:33:44 145.795 - 145.815
SEEDS 24 Jul 08:32:36 08:35:40 19° 102° (ESE) 08:38:43 437.485
NUDT-PHONESAT 24 Jul 08:41:46 08:44:16 17° 281° (W) 08:46:47 437.300
XW-2A 24 Jul 08:47:23 08:50:15 27° 101° (ESE) 08:53:08 145.665 - 145.685
SRMSAT 24 Jul 08:52:48 08:57:17 22° 17° (NNE) 09:01:45 437.500
KAITUO 1B 24 Jul 08:55:30 08:56:35 11° 281° (W) 08:57:41 145.475/437.950
CUBEBUG 2 24 Jul 09:17:43 09:21:50 68° 102° (ESE) 09:25:57 437.445
AAUSAT CUBESAT 2 24 Jul 09:19:35 09:23:22 34° 102° (ESE) 09:27:09 437.432
HO-68 24 Jul 09:28:27 09:35:22 56° 284° (WNW) 09:42:20 435.675
Oscar 11 24 Jul 09:30:03 09:32:07 13° 102° (ESE) 09:34:11 .
AO-73 24 Jul 09:40:47 09:44:16 27° 102° (ESE) 09:47:49 145.935
JUGNU 24 Jul 09:43:20 09:49:04 53° 201° (SSW) 09:54:47 437.505
STRAND 1 24 Jul 09:45:02 09:49:34 31° 257° (WSW) 09:54:05 437.568
NO-84 24 Jul 09:48:13 09:49:52 14° 123° (ESE) 09:51:30 435.350 FM
CUTE 1.7 + AOD 2 24 Jul 09:53:53 09:56:17 15° 281° (WNW) 09:58:41 437.475
SEEDS 24 Jul 10:08:26 10:11:04 16° 281° (WNW) 10:13:43 437.485
UWE-3 24 Jul 10:19:03 10:22:38 29° 281° (W) 10:26:14 435.000/436.395/437.385
FO-29 24 Jul 10:30:04 10:36:02 32° 75° (ENE) 10:42:31 435.910
DELFI C3 24 Jul 10:34:53 10:37:38 18° 102° (ESE) 10:40:24 145.870
ZACube-1 24 Jul 10:35:30 10:39:18 36° 281° (W) 10:43:10 437.345
SRMSAT 24 Jul 10:40:56 10:46:42 55° 21° (NNE) 10:52:30 437.500
TIGRISAT 24 Jul 10:58:50 11:02:33 23° 78° (ENE) 11:06:13 435.000
Oscar 11 24 Jul 11:04:27 11:07:58 25° 281° (WNW) 11:11:30 .
AO-73 24 Jul 11:19:21 11:20:16 11° 281° (WNW) 11:21:10 145.935
EO-88 24 Jul 11:19:47 11:23:18 48° 101° (E) 11:26:51 145.990 - 145.960
JUGNU 24 Jul 11:33:57 11:38:19 21° 196° (SSW) 11:42:42 437.505
M-CUBED/EXP-1 PRIME 24 Jul 11:40:59 11:43:43 24° 74° (ENE) 11:46:31 437.505
UNISAT 6 24 Jul 11:49:45 11:54:24 62° 258° (WSW) 11:59:01 437.425
DELFI C3 24 Jul 12:09:49 12:12:08 15° 281° (WNW) 12:14:27 145.870
PRISM 24 Jul 12:10:16 12:13:59 35° 258° (WSW) 12:17:41 437.425
FO-29 24 Jul 12:15:08 12:20:45 28° 259° (W) 12:26:50 435.910
AIST 2D 24 Jul 12:29:53 12:32:55 27° 79° (E) 12:35:55 435.315
SRMSAT 24 Jul 12:30:08 12:35:54 54° 201° (SSW) 12:41:44 437.500
POLYITAN 1 24 Jul 12:31:35 12:32:10 10° 78° (ENE) 12:32:46 437.675
BEESAT 3 24 Jul 12:34:27 12:38:11 47° 112° (ESE) 12:41:58 437.485
TIGRISAT 24 Jul 12:35:50 12:38:55 18° 258° (WSW) 12:42:02 435.000
AO-85 24 Jul 12:41:26 12:45:55 69° 111° (ESE) 12:50:02 145.980
QB50P2 24 Jul 12:42:12 12:45:07 18° 78° (ENE) 12:48:02 145.880/145.840
EO-79 24 Jul 12:54:08 12:57:35 24° 78° (ENE) 13:01:00 145.935-145.965
NANOSAT C BR1 24 Jul 12:55:08 12:58:23 21° 78° (ENE) 13:01:37 145.865
LO-87 24 Jul 13:01:27 13:04:52 48° 281° (WNW) 13:08:18 145.935 - 145.965
BEESAT 2 24 Jul 13:11:44 13:15:20 36° 111° (ESE) 13:18:56 435.950
JUGNU 24 Jul 13:26:26 13:28:07 11° 188° (S) 13:29:48 437.505
ESTCUBE 1 24 Jul 13:35:02 13:39:15 40° 282° (WNW) 13:43:31 437.505/2401.250
SPROUT 24 Jul 13:48:57 13:53:04 52° 102° (ESE) 13:57:11 437.525
DUCHIFAT 1 24 Jul 14:02:52 14:06:53 42° 258° (WSW) 14:10:53 145.980
POLYITAN 1 24 Jul 14:03:54 14:07:41 30° 258° (WSW) 14:11:27 437.675
Oscar 19 24 Jul 14:04:10 14:05:52 12° 77° (ENE) 14:07:33 437.125/150
RS-15 24 Jul 14:08:48 14:13:24 13° 113° (ESE) 14:18:02 29.354- 29.394
50 SAT 24 Jul 14:14:51 14:17:50 29° 101° (E) 14:20:49 437.505
QB50P2 24 Jul 14:17:43 14:20:38 18° 258° (WSW) 14:23:33 145.880/145.840
SRMSAT 24 Jul 14:20:53 14:25:22 22° 196° (SSW) 14:29:53 437.500
Gurwin Techsat 1B 24 Jul 14:21:53 14:23:04 11° 77° (ENE) 14:24:16 435.225
VELOX 1 24 Jul 14:25:26 14:29:46 56° 282° (WNW) 14:34:07 145.980
EO-79 24 Jul 14:30:57 14:33:03 13° 258° (WSW) 14:35:10 145.935-145.965
NANOSAT C BR1 24 Jul 14:31:22 14:33:48 15° 258° (WSW) 14:36:15 145.865
DX 1 24 Jul 14:34:41 14:38:45 39° 102° (ESE) 14:42:50 434.975-435.025
BUGSAT 1 24 Jul 14:35:46 14:39:59 73° 259° (W) 14:44:12 437.445
UKube-1 24 Jul 15:19:15 15:23:32 77° 284° (WNW) 15:27:52 .
Oscar 19 24 Jul 15:40:07 15:44:54 40° 258° (WSW) 15:49:40 437.125/150
AO-7 24 Jul 15:41:18 15:44:48 13° 72° (ENE) 15:48:18 .
O/OREOS (USA 219) 24 Jul 15:42:07 15:46:37 65° 105° (ESE) 15:51:04 437.305
Gurwin Techsat 1B 24 Jul 15:57:39 16:02:43 46° 257° (WSW) 16:07:47 435.225
MOZHAYETS 4 24 Jul 16:03:41 16:05:50 13° 102° (ESE) 16:07:59
SRMSAT 24 Jul 16:13:22 16:15:22 12° 187° (S) 16:17:23 437.500
RS-15 24 Jul 16:13:50 16:25:33 89° 290° (WNW) 16:37:48 29.354- 29.394
BEESAT 24 Jul 16:28:51 16:33:23 46° 102° (ESE) 16:37:56 436.000
ITUPSAT 1 24 Jul 16:41:13 16:45:55 67° 103° (ESE) 16:50:39 437.325
PCSat 24 Jul 16:45:21 16:50:09 33° 71° (ENE) 16:54:57 145.827
JUGNU 24 Jul 17:04:51 17:08:20 16° 167° (SSE) 17:11:50 437.505
AO-7 24 Jul 17:28:48 17:37:06 73° 254° (WSW) 17:45:25 .
ITAMSAT 1 24 Jul 17:29:04 17:34:11 55° 257° (WSW) 17:39:17 435.822/435.867
MOZHAYETS 4 24 Jul 17:38:49 17:42:42 28° 282° (WNW) 17:46:38
SO-50 24 Jul 17:41:54 17:45:23 21° 68° (ENE) 17:48:54 436.795
SRMSAT 24 Jul 18:05:06 18:05:47 10° 177° (S) 18:06:27 437.500
CUBESAT XI-V 24 Jul 18:10:06 18:14:48 90° 282° (WNW) 18:19:31 437.345
KKS-1 24 Jul 18:26:04 18:30:29 70° 102° (ESE) 18:34:54 437.445
DOVE 4 24 Jul 18:29:07 18:32:35 22° 77° (ENE) 18:36:10 437.250
PCSat 24 Jul 18:30:02 18:33:16 16° 250° (WSW) 18:36:31 145.827
RS-15 24 Jul 18:33:29 18:38:05 13° 295° (WNW) 18:42:47 29.354- 29.394
JUGNU 24 Jul 18:52:26 18:57:50 36° 160° (SSE) 19:03:15 437.505
YUBILEINY 24 Jul 18:53:35 19:00:13 24° 93° (E) 19:06:48 435.215
STARS 24 Jul 18:58:28 19:02:47 63° 102° (ESE) 19:07:05 437.465
ISS 24 Jul 19:08:21 19:10:40 18° 126° (SE) 19:12:59 437.550
LilacSat-2 24 Jul 19:10:02 19:13:03 22° 79° (E) 19:16:02 437.200
CUTE-I 24 Jul 19:11:05 19:15:10 22° 77° (ENE) 19:19:15 437.470
KAITUO 1B 24 Jul 19:12:53 19:15:09 15° 79° (E) 19:17:23 145.475/437.950
SO-50 24 Jul 19:22:18 19:25:35 19° 247° (WSW) 19:28:54 436.795
XW-2F 24 Jul 19:25:50 19:29:18 34° 79° (E) 19:32:42 145.980 - 146.000
HO-68 24 Jul 19:37:04 19:39:41 12° 75° (ENE) 19:42:17 435.675
Tancredo 1 24 Jul 19:43:13 19:45:22 18° 306° (NW) 19:47:31 437.200
nSIGHT-1 24 Jul 19:50:22 19:53:37 85° 303° (WNW) 19:56:50 .
SRMSAT 24 Jul 19:52:18 19:55:59 16° 167° (SSE) 19:59:40 437.500
XW-2D 24 Jul 19:53:35 19:57:22 68° 259° (WSW) 20:01:06 145.860 - 145.880
XW-2B 24 Jul 20:03:43 20:07:24 48° 259° (W) 20:11:02 145.730 - 145.750
DOVE 4 24 Jul 20:07:09 20:10:01 17° 260° (W) 20:12:58 437.250
XW-2C 24 Jul 20:21:31 20:24:40 25° 259° (WSW) 20:27:47 145.795 - 145.815
CUTE 1.7 + AOD 2 24 Jul 20:23:32 20:27:02 26° 79° (ENE) 20:30:32 437.475
XW-2A 24 Jul 20:30:56 20:32:52 14° 79° (E) 20:34:47 145.665 - 145.685
NUDT-PHONESAT 24 Jul 20:32:41 20:35:42 24° 258° (WSW) 20:38:43 437.300
SEEDS 24 Jul 20:37:35 20:40:50 22° 79° (ENE) 20:44:05 437.485
STRAND 1 24 Jul 20:38:28 20:43:10 38° 103° (ESE) 20:47:52 437.568
JUGNU 24 Jul 20:40:57 20:46:55 85° 337° (NNW) 20:52:56 437.505
ISS 24 Jul 20:45:20 20:46:57 13° 306° (NW) 20:48:33 437.550
LilacSat-2 24 Jul 20:46:20 20:47:02 10° 258° (WSW) 20:47:43 437.200
KAITUO 1B 24 Jul 20:46:47 20:48:52 14° 258° (WSW) 20:50:58 145.475/437.950
YUBILEINY 24 Jul 20:48:24 20:56:36 44° 273° (W) 21:04:50 435.215
CUTE-I 24 Jul 20:50:43 20:54:56 24° 257° (WSW) 20:59:09 437.470
UWE-3 24 Jul 20:54:35 20:57:38 17° 78° (ENE) 21:00:38 435.000/436.395/437.385
ZACube-1 24 Jul 21:11:10 21:13:13 13° 79° (ENE) 21:15:15 437.345
HO-68 24 Jul 21:19:54 21:27:02 66° 256° (WSW) 21:34:08 435.675
AAUSAT CUBESAT 2 24 Jul 21:22:58 21:26:46 37° 79° (E) 21:30:33 437.432
CUBEBUG 2 24 Jul 21:29:24 21:34:09 79° 258° (WSW) 21:38:53 437.445
NO-84 24 Jul 21:29:54 21:33:12 21° 58° (ENE) 21:36:31 435.350 FM
Oscar 11 24 Jul 21:37:57 21:40:50 18° 79° (ENE) 21:43:42 .
SRMSAT 24 Jul 21:40:10 21:45:40 36° 160° (SSE) 21:51:08 437.500
AO-73 24 Jul 21:49:36 21:53:52 40° 79° (E) 21:58:03 145.935
CUTE 1.7 + AOD 2 24 Jul 22:01:08 22:02:35 12° 258° (WSW) 22:04:02 437.475
XW-2A 24 Jul 22:03:50 22:05:19 12° 258° (WSW) 22:06:48 145.665 - 145.685
FO-29 24 Jul 22:07:36 22:10:09 13° 101° (E) 22:12:36 435.910
SEEDS 24 Jul 22:14:16 22:16:15 13° 258° (WSW) 22:18:13 437.485
STRAND 1 24 Jul 22:20:07 22:22:03 12° 283° (WNW) 22:24:00 437.568
UWE-3 24 Jul 22:30:06 22:33:47 23° 258° (WSW) 22:37:27 435.000/436.395/437.385
JUGNU 24 Jul 22:30:49 22:36:05 32° 341° (NNW) 22:41:21 437.505
DELFI C3 24 Jul 22:33:16 22:35:46 16° 79° (ENE) 22:38:16 145.870
ZACube-1 24 Jul 22:45:17 22:49:13 29° 258° (WSW) 22:53:06 437.345
NO-84 24 Jul 23:07:12 23:10:33 21° 238° (WSW) 23:13:53 435.350 FM
EO-88 24 Jul 23:09:47 23:13:05 32° 79° (E) 23:16:21 145.990 - 145.960
TIGRISAT 24 Jul 23:11:39 23:15:23 31° 102° (ESE) 23:19:09 435.000
Oscar 11 24 Jul 23:13:40 23:16:42 19° 258° (WSW) 23:19:42 .
SRMSAT 24 Jul 23:28:55 23:34:57 84° 340° (NNW) 23:40:56 437.500
M-CUBED/EXP-1 PRIME 24 Jul 23:38:58 23:43:05 32° 105° (ESE) 23:47:04 437.505
FO-29 24 Jul 23:49:21 23:55:09 43° 284° (WNW) 00:00:24 435.910
UNISAT 6 25 Jul 00:03:31 00:07:27 37° 281° (WNW) 00:11:23 437.425
DELFI C3 25 Jul 00:07:54 00:10:16 15° 258° (WSW) 00:12:36 145.870
PRISM 25 Jul 00:12:43 00:16:26 33° 282° (WNW) 00:20:10 437.425
ESTCUBE 1 25 Jul 00:14:28 00:16:47 14° 78° (ENE) 00:19:07 437.505/2401.250
AIST 2D 25 Jul 00:16:26 00:18:41 16° 101° (ESE) 00:20:56 435.315
JUGNU 25 Jul 00:22:24 00:25:40 15° 348° (NNW) 00:28:56 437.505
BEESAT 3 25 Jul 00:26:11 00:29:55 47° 68° (ENE) 00:33:35 437.485
POLYITAN 1 25 Jul 00:36:32 00:38:14 12° 102° (ESE) 00:39:55 437.675
QB50P2 25 Jul 00:48:02 00:51:13 21° 102° (ESE) 00:54:25 145.880/145.840
LO-87 25 Jul 00:49:04 00:52:40 82° 256° (WSW) 00:56:17 145.935 - 145.965
AO-85 25 Jul 00:52:43 00:57:24 65° 248° (WSW) 01:02:27 145.980
EO-79 25 Jul 00:59:53 01:03:28 28° 102° (ESE) 01:07:04 145.935-145.965
NANOSAT C BR1 25 Jul 01:00:28 01:03:53 25° 102° (ESE) 01:07:18 145.865
BEESAT 2 25 Jul 01:04:37 01:08:20 38° 68° (ENE) 01:11:59 435.950
M-CUBED/EXP-1 PRIME 25 Jul 01:15:06 01:17:09 13° 287° (WNW) 01:19:10 437.505
SRMSAT 25 Jul 01:19:00 01:24:14 31° 341° (NNW) 01:29:28 437.500
ESTCUBE 1 25 Jul 01:49:39 01:53:19 25° 258° (WSW) 01:56:59 437.505/2401.250
AIST 2D 25 Jul 01:50:17 01:51:36 12° 281° (W) 01:52:56 435.315
SPROUT 25 Jul 01:55:50 02:00:06 68° 78° (ENE) 02:04:21 437.525
50 SAT 25 Jul 01:58:36 02:00:32 15° 79° (ENE) 02:02:28 437.505
DUCHIFAT 1 25 Jul 02:08:18 02:12:03 34° 282° (WNW) 02:15:50 145.980
POLYITAN 1 25 Jul 02:10:20 02:13:44 24° 282° (WNW) 02:17:08 437.675
QB50P2 25 Jul 02:24:29 02:26:44 14° 282° (WNW) 02:28:59 145.880/145.840
Oscar 19 25 Jul 02:34:52 02:39:24 31° 103° (ESE) 02:43:57 437.125/150
VELOX 1 25 Jul 02:37:08 02:41:12 37° 258° (WSW) 02:45:16 145.980
NANOSAT C BR1 25 Jul 02:37:44 02:39:19 12° 282° (WNW) 02:40:55 145.865
EO-79 25 Jul 02:38:10 02:38:57 10° 282° (WNW) 02:39:45 145.935-145.965
BUGSAT 1 25 Jul 02:38:56 02:42:54 64° 281° (WNW) 02:46:52 437.445
DX 1 25 Jul 02:44:04 02:48:18 55° 78° (ENE) 02:52:32 434.975-435.025
Gurwin Techsat 1B 25 Jul 02:56:47 03:01:28 32° 103° (ESE) 03:06:09 435.225
SRMSAT 25 Jul 03:10:50 03:13:58 14° 348° (NNW) 03:17:08 437.500
UKube-1 25 Jul 03:27:41 03:31:54 57° 257° (WSW) 03:36:08 .
50 SAT 25 Jul 03:31:47 03:32:59 12° 258° (WSW) 03:34:12 437.505
O/OREOS (USA 219) 25 Jul 03:52:56 03:57:26 72° 256° (WSW) 04:01:59 437.305
RS-15 25 Jul 03:57:13 04:08:42 80° 69° (ENE) 04:19:40 29.354- 29.394
JUGNU 25 Jul 04:03:37 04:05:58 12° 9° (N) 04:08:20 437.505
AO-7 25 Jul 04:04:49 04:11:06 24° 107° (ESE) 04:17:20 .
Oscar 19 25 Jul 04:15:22 04:18:26 16° 283° (WNW) 04:21:32 437.125/150
MOZHAYETS 4 25 Jul 04:18:59 04:22:34 22° 78° (ENE) 04:26:07
ITAMSAT 1 25 Jul 04:25:49 04:29:54 24° 103° (ESE) 04:34:00 435.822/435.867
Gurwin Techsat 1B 25 Jul 04:37:58 04:41:07 16° 283° (WNW) 04:44:18 435.225
BEESAT 25 Jul 04:50:28 04:55:16 88° 253° (WSW) 05:00:03 436.000
ITUPSAT 1 25 Jul 05:03:28 05:08:13 61° 258° (WSW) 05:12:57 437.325
PCSat 25 Jul 05:20:53 05:26:17 79° 289° (WNW) 05:31:41 145.827
JUGNU 25 Jul 05:51:00 05:55:44 24° 17° (NNE) 06:00:26 437.505
SO-50 25 Jul 05:53:54 05:58:13 38° 112° (ESE) 06:02:27 436.795
AO-7 25 Jul 05:55:41 06:03:28 46° 286° (WNW) 06:11:17 .
MOZHAYETS 4 25 Jul 05:56:26 05:59:26 17° 258° (WSW) 06:02:25
ITAMSAT 1 25 Jul 06:05:19 06:09:05 21° 283° (WNW) 06:12:53 435.822/435.867
